Showing default

UMBRA-10, 60547

Orbit data source: Space-Track

UMBRA-10, 60547 is a payload satellite owned by Umbra Labs (US) in SSO that was launched on Fri, 16 Aug 2024 UTC via an FALCON 9 launch vehicle from the Air Force Western Test Range (AFWTR). Payload-class satellites include a variety of spacecraft equipped with specific instruments for various scientific and technological missions. These include communications satellites like Starlink; space stations such as the ISS; scientific satellites like the Hubble; Earth observation satellites from companies like Planet Labs, Umbra, and HawkEye 360; GPS; miniature CubeSats for education and research; and military/defense satellites.

Loading next visibility...
Identifier
60547, 2024-149CH
Orbit
SSO
Country
Flag of USUS
Related business
Manufacturer
Umbra Labs
Mission
Operational Commercial Radar Imaging
Bus & Motor
ESPASAT?, Unknown motor
Mass
84 kg wet, 79 kg dry
Launch date (UTC)
2024-08-16 (1 year ago)
Launch vehicle
FALCON 9
Launch site
Air Force Western Test Range (AFWTR)
Object type
Payload
Rocket body
Debris
Shape & HBR
Box + 2 Pan + 1 Dish, 2.0 m
Radar Cross Section
6.513 m², Large (>1 m²)

Expand to show TLE details & history
Last TLE update: 14 hours ago

TLE from 14 hours ago
0 UMBRA-10
1 60547U 24149CH  26035.18851831  .00020912  00000-0  11722-2 0  9992
2 60547  97.7044 120.5665 0001274  93.1885 266.9491 15.13416037 80587
Epoch: 2026-02-04T04:31Z
TLE epoch observation values (Epoch: 2026-02-04T04:31:27.981Z)
Latitude
-0.0001°
Longitude
-81.65876°
Altitude
528.911 km
Speed
7.598 km/s
True Right ascension
08h 02m 15s
True Declination
0° 00' 00"
Sunlit
Object was in full shadow at epoch
Visualization orbit readout
Latitude
Unknown
Longitude
Unknown
Altitude
Unknown
Speed
Unknown
Apparent Right ascension
Unknown
Apparent Declination
Unknown
Sunlit
N/A
Visualization observer readout
Local Sidereal Time
20:17:32
Azimuth
Unknown
Elevation
Unknown
Doppler factor
Unknown
Orbital elements
Apogee altitude
523.658 km
Perigee altitude
521.9 km
Semi-major axis
6,900.916 km
Eccentricity
0.00013
Inclination
97.7044°
RAAN
120.5665°
Arg. of periapsis
93.1885°
True anomaly
266.93452°
Mean anomaly
266.9491°
Eccentric anomaly
266.94181°
Mean motion
3.78602 °/min
Orbital period
95.09 mins
BSTAR
0.0011722
Loading maneuver chart data...
Computing Atmospheric mass density...
Loading historical data...
Loading historical data...
Loading historical data...
Loading historical data...
Loading historical data...
Loading historical data...
Loading historical data...

Documentation

Showing up to 5 results
|